Fredericksburg, VA

11:46 PM EDT on July 24, 2016 (GMT -0400)
Shannon

Weather History for KEZF - October, 2012

Change the Weather History Date:

Wednesday, October 17, 2012

  Actual Average (KNYG) Record (KNYG)
Temperature  
Mean Temperature 56 °F -  
Max Temperature 72 °F 64 °F 77 °F (2007)
Min Temperature 41 °F 45 °F 39 °F (2001)
Degree Days  
Heating Degree Days 8    
Growing Degree Days 6 (Base 50)    
Moisture  
Dew Point 48 °F    
Average Humidity 77    
Maximum Humidity 100    
Minimum Humidity 40    
Precipitation  
Precipitation 0.00 in - - ()
Sea Level Pressure  
Sea Level Pressure 29.95 in    
Wind  
Wind Speed 2 mph (SSE)    
Max Wind Speed 10 mph    
Max Gust Speed 18 mph    
Visibility 10 miles    
Events      
Averages and records for this station are not official NWS values.
T = Trace of Precipitation, MM = Missing Value Source: NWS Daily Summary

Daily Weather History Graph

Daily Weather History Graph

Search for Another Location

Airport or City:

Trip Planner

Search our weather history database for the weather conditions in past years. The results will help you decide how hot, cold, wet, or windy it might be!

Date:

Astronomy

Oct. 17, 2012 Rise Set
Actual Time 7:21 AM EDT 6:28 PM EDT
Civil Twilight 6:54 AM EDT 6:55 PM EDT
Nautical Twilight 6:23 AM EDT 7:25 PM EDT
Astronomical Twilight 5:53 AM EDT 7:56 PM EDT
Moon 9:50 AM EDT (10/17) 8:05 PM EDT (10/17)
Length of Visible Light 12h 00m
Length of Day
11h 07m
Waxing Crescent, 7% of the Moon is Illuminated
Oct 17
Waxing Crescent
Oct 21
First Quarter
Oct 29
Full
Nov 6
Last Quarter
Nov 13
New

Hourly Weather History & Observations

Time (EDT) Temp. Dew Point Humidity Pressure Visibility Wind Dir Wind Speed Gust Speed Precip Events Conditions
12:15 AM 45.7 °F 45.1 °F 98% 29.94 in 10.0 mi Calm Calm - N/A   Clear
12:35 AM 45.9 °F 45.5 °F 99% 29.94 in 10.0 mi Calm Calm - N/A   Clear
12:55 AM 45.7 °F 45.5 °F 99% 29.95 in 10.0 mi Calm Calm - N/A   Clear
1:15 AM 45.9 °F 45.7 °F 99% 29.95 in 10.0 mi Calm Calm - N/A   Clear
1:35 AM 45.3 °F 45.1 °F 99% 29.95 in 10.0 mi Calm Calm - N/A   Clear
1:55 AM 45.5 °F 45.5 °F 100% 29.95 in 10.0 mi Calm Calm - N/A   Clear
2:15 AM 45.5 °F 45.1 °F 99% 29.95 in 10.0 mi Calm Calm - N/A   Clear
2:35 AM 45.7 °F 45.7 °F 100% 29.95 in 10.0 mi Calm Calm - N/A   Clear
2:55 AM 44.8 °F 44.6 °F 99% 29.95 in 10.0 mi Calm Calm - N/A   Clear
3:15 AM 45.1 °F 45.0 °F 99% 29.95 in 10.0 mi Calm Calm - N/A   Clear
3:35 AM 45.3 °F 45.3 °F 100% 29.95 in 10.0 mi Calm Calm - N/A   Clear
3:55 AM 44.8 °F 44.8 °F 100% 29.95 in 10.0 mi Calm Calm - N/A   Clear
4:15 AM 44.8 °F 44.6 °F 99% 29.95 in 10.0 mi Calm Calm - N/A   Clear
4:35 AM 44.2 °F 43.7 °F 98% 29.96 in 10.0 mi Calm Calm - N/A   Clear
4:55 AM 44.6 °F 44.2 °F 99% 29.96 in 10.0 mi Calm Calm - N/A   Clear
5:15 AM 43.7 °F 43.7 °F 100% 29.97 in 10.0 mi Calm Calm - N/A   Clear
5:35 AM 43.9 °F 43.9 °F 100% 29.97 in 10.0 mi Calm Calm - N/A   Clear
5:55 AM 43.7 °F 43.7 °F 100% 29.97 in 10.0 mi Calm Calm - N/A   Clear
6:15 AM 43.2 °F 43.2 °F 100% 29.97 in 7.0 mi Calm Calm - N/A   Clear
6:35 AM 42.6 °F 42.6 °F 100% 29.98 in 10.0 mi Calm Calm - N/A   Clear
6:55 AM 43.0 °F 43.0 °F 100% 29.98 in 10.0 mi Calm Calm - N/A   Clear
7:15 AM 41.9 °F 41.9 °F 100% 29.99 in 10.0 mi Calm Calm - N/A   Clear
7:35 AM 42.4 °F 42.4 °F 100% 29.99 in 10.0 mi Calm Calm - N/A   Clear
7:55 AM 42.6 °F 42.6 °F 100% 29.99 in 10.0 mi Calm Calm - N/A   Clear
8:15 AM 44.4 °F 44.1 °F 99% 30.00 in 10.0 mi Calm Calm - N/A   Clear
8:35 AM 46.6 °F 46.0 °F 98% 30.00 in 10.0 mi Calm Calm - N/A   Clear
8:55 AM 48.2 °F 46.8 °F 95% 30.01 in 10.0 mi Calm Calm - N/A   Clear
9:15 AM 49.3 °F 46.9 °F 92% 30.01 in 10.0 mi Calm Calm - N/A   Clear
9:35 AM 50.5 °F 47.3 °F 89% 30.02 in 10.0 mi Calm Calm - N/A   Clear
9:55 AM 52.0 °F 48.2 °F 87% 30.02 in 10.0 mi Calm Calm - N/A   Clear
10:15 AM 53.6 °F 49.1 °F 85% 30.02 in 10.0 mi Calm Calm - N/A   Clear
10:35 AM 55.2 °F 49.5 °F 81% 30.02 in 10.0 mi Calm Calm - N/A   Clear
10:55 AM 57.7 °F 49.3 °F 73% 30.01 in 10.0 mi Calm Calm - N/A   Clear
11:15 AM 60.4 °F 49.6 °F 68% 30.01 in 10.0 mi SE 3.5 mph - N/A   Clear
11:35 AM 61.9 °F 49.6 °F 64% 30.00 in 10.0 mi East 3.5 mph - N/A   Clear
11:55 AM 63.5 °F 50.4 °F 62% 29.99 in 10.0 mi ESE 6.9 mph - N/A   Clear
12:15 PM 66.6 °F 51.4 °F 58% 29.98 in 10.0 mi ESE 3.5 mph - N/A   Scattered Clouds
12:55 PM 68.2 °F 48.6 °F 49% 29.97 in 10.0 mi SSE 6.9 mph - N/A   Clear
1:15 PM 69.8 °F 48.7 °F 47% 29.96 in 10.0 mi SSE 8.1 mph - N/A   Clear
1:35 PM 70.5 °F 49.3 °F 47% 29.95 in 10.0 mi SSE 8.1 mph - N/A   Clear
1:55 PM 71.2 °F 49.3 °F 46% 29.94 in 10.0 mi SSE 6.9 mph - N/A   Clear
2:15 PM 71.6 °F 48.0 °F 43% 29.93 in 10.0 mi South 6.9 mph - N/A   Clear
2:35 PM 72.0 °F 48.7 °F 44% 29.93 in 10.0 mi WSW 5.8 mph - N/A   Clear
2:55 PM 71.6 °F 47.5 °F 42% 29.93 in 10.0 mi South 9.2 mph - N/A   Clear
3:15 PM 72.5 °F 47.1 °F 40% 29.92 in 10.0 mi SSW 9.2 mph - N/A   Clear
3:35 PM 72.5 °F 47.1 °F 40% 29.92 in 10.0 mi SSW 10.4 mph - N/A   Clear
3:55 PM 72.9 °F 47.3 °F 40% 29.91 in 10.0 mi SSW 10.4 mph - N/A   Clear
4:15 PM 72.5 °F 47.7 °F 41% 29.91 in 10.0 mi SSW 5.8 mph - N/A   Clear
4:35 PM 72.5 °F 47.7 °F 41% 29.91 in 10.0 mi South 10.4 mph 18.4 mph N/A   Scattered Clouds
4:55 PM 72.3 °F 47.8 °F 42% 29.91 in 10.0 mi SSW 6.9 mph - N/A   Clear
5:15 PM 72.0 °F 47.7 °F 42% 29.91 in 10.0 mi South 5.8 mph - N/A   Clear
5:35 PM 71.2 °F 47.7 °F 43% 29.91 in 10.0 mi South 3.5 mph - N/A   Clear
5:55 PM 70.5 °F 47.8 °F 44% 29.91 in 10.0 mi South 5.8 mph - N/A   Clear
6:15 PM 68.7 °F 48.6 °F 49% 29.91 in 10.0 mi South 3.5 mph - N/A   Clear
6:35 PM 63.5 °F 50.9 °F 63% 29.91 in 10.0 mi SSE 3.5 mph - N/A   Clear
6:55 PM 61.0 °F 50.9 °F 69% 29.92 in 10.0 mi Calm Calm - N/A   Clear
7:15 PM 60.1 °F 51.6 °F 74% 29.92 in 10.0 mi Calm Calm - N/A   Clear
7:35 PM 59.4 °F 51.1 °F 74% 29.93 in 10.0 mi ESE 3.5 mph - N/A   Clear
7:55 PM 57.9 °F 51.1 °F 78% 29.94 in 10.0 mi SSE 4.6 mph - N/A   Scattered Clouds
8:15 PM 57.2 °F 50.7 °F 79% 29.94 in 10.0 mi SSE 4.6 mph - N/A   Scattered Clouds
8:35 PM 56.7 °F 50.9 °F 81% 29.94 in 10.0 mi SSE 4.6 mph - N/A   Clear
8:55 PM 56.5 °F 50.9 °F 82% 29.94 in 10.0 mi SSE 4.6 mph - N/A   Clear
9:15 PM 58.3 °F 50.9 °F 76% 29.94 in 10.0 mi South 6.9 mph - N/A   Clear
9:35 PM 57.7 °F 51.1 °F 78% 29.94 in 10.0 mi SSE 6.9 mph - N/A   Clear
9:55 PM 57.7 °F 50.9 °F 78% 29.94 in 10.0 mi SSE 6.9 mph - N/A   Clear
10:15 PM 57.2 °F 50.9 °F 79% 29.94 in 10.0 mi SSE 8.1 mph - N/A   Clear
10:35 PM 57.7 °F 51.3 °F 79% 29.94 in 10.0 mi SSE 8.1 mph - N/A   Clear
10:55 PM 57.6 °F 51.6 °F 81% 29.94 in 10.0 mi SSE 9.2 mph - N/A   Clear
11:15 PM 57.2 °F 51.8 °F 82% 29.94 in 10.0 mi SSE 8.1 mph - N/A   Clear
11:35 PM 57.2 °F 52.0 °F 83% 29.94 in 10.0 mi SSE 5.8 mph - N/A   Clear
11:55 PM 56.5 °F 51.8 °F 84% 29.94 in 10.0 mi SSE 6.9 mph - N/A   Clear